Flag for Germany Weather past 2 weeks in Pfaffenhofen an der Ilm, Bavaria, Germany

Now
75 °F

Partly sunny.


Feels Like: 78 °F
Forecast: 56 / 73 °F
Wind: 1 mph from South

Location: Ingolstadt Airport

Current Time: Sep 19, 2014 at 6:30:41 PM

Latest Report: Sep 19, 2014 at 5:20 PM


Visibility: N/A

Pressure: 29.95 "Hg

Humidity: 57%

Dew point: 59 °F

Location of Pfaffenhofen an der IlmLocation

Historic Weather in Pfaffenhofen an der Ilm — Graph

°F

Pfaffenhofen an der Ilm temperature yesterday

Maximum temperature yesterday: 72 °F (at 2:20 PM)
Minimum temperature yesterday: 52 °F (at 5:20 AM)
Average temperature yesterday: 62 °F

Past Weeks' High & Low Weather Summary

 TemperatureHumidityPressure
High79 °F (Sep 7, 5:20 PM)100% (Sep 5, 4:20 AM)30.12 "Hg (Sep 5, 4:20 AM)
Low48 °F (Sep 10, 4:20 AM)45% (Sep 7, 5:20 PM)29.89 "Hg (Sep 6, 4:20 PM)
Average61 °F85%30.00 "Hg
* Reported Sep 4 5:00 PM — Sep 19 5:20 PM, Pfaffenhofen an der Ilm, Weather by CustomWeather, © 2014

Note: Actual official high and low records may vary slightly from our data, if they occured in-between our weather recording intervals... More about our weather records

Advertising

Pfaffenhofen an der Ilm weather history for previous 24 hours

 ConditionsComfort  
Time TempWeatherWind HumidityBarometerVisibility
5:20 PM
Sep 19
75 °FPartly sunny.1 mph57%29.95 "HgN/A
4:20 PM77 °FPartly sunny.3 mph54%29.95 "HgN/A
3:20 PM75 °FPartly sunny.2 mph57%29.95 "HgN/A
2:20 PM73 °FBroken clouds.3 mph65%29.98 "HgN/A
1:20 PM72 °FBroken clouds.3 mph73%29.98 "HgN/A
12:20 PM70 °FPartly sunny.2 mph73%29.98 "HgN/A
11:20 AM66 °FScattered clouds.3 mph83%29.98 "HgN/A
10:20 AM63 °FScattered clouds.2 mph88%30.01 "HgN/A
8:20 AM57 °FFog.No wind100%29.98 "Hg1 mi
7:20 AM55 °FFog.1 mph100%29.98 "Hg0 mi
6:20 AM55 °FFog.No wind100%29.95 "Hg0 mi
5:54 AM57 °FFog.1 mph100%29.95 "Hg1 mi
5:20 AM57 °FFog.5 mph100%29.95 "Hg0 mi
4:20 AM57 °FCool.No wind100%29.95 "Hg0 mi
3:20 AM59 °FCool.No wind94%29.95 "Hg0 mi
2:20 AM59 °FCool.5 mph100%29.95 "Hg0 mi
1:20 AM61 °FCool.3 mph100%29.95 "Hg2 mi
12:20 AM61 °FPassing clouds.No wind100%29.95 "HgN/A
11:20 PM
Sep 18
63 °FLight rain. Passing clouds.2 mph94%29.95 "HgN/A
10:20 PM63 °FMild.6 mph88%29.98 "Hg3 mi
9:20 PM63 °FPartly cloudy.1 mph88%29.95 "HgN/A
8:20 PM64 °FBroken clouds.3 mph83%29.92 "HgN/A
7:20 PM68 °FPartly sunny.2 mph73%29.92 "HgN/A
6:20 PM72 °FBroken clouds.3 mph65%29.92 "HgN/A
Weather by CustomWeather, © 2014

See weather overviewHow to use our weather pages